Portada
METAR-TAF:

METAR-TAF

Aeroports :

Macas, Equador

latitud: 02-17-57-S, longitud: 078-07-15-W, altitud: 1052 m

Observació

L'informe es va fer fa 18 minuts, a les 20:00 UTC
Vent 3 kt del Nord-Est
Temperatura 19°C
Humitat 94%
Pressió 1016 hPa
Visibilitat: 2000 m
Cel cobert a una alçada de 1000 ft
pluja

METAR: SEMC 302000Z 05003KT 2000 -RA OVC010 19/18 Q1016 RMK A3002

Hora: 15:18 (20:18 UTC)


TAF: manca

Observacions i pronòstics meteorològics de més de 4000 aeroports (METAR i TAF).

Les estacions disponibles són els punts grocs i vermells al mapa.

Posi el ratolí al punt desitjat per veure el nom de l'estació.

Feu clic per veure les observacions i els pronòstics meteorològics.

Per canviar el mapa: feu clic els botons verds amb una creu de color negre per apropar; al botó verd amb un guió per allunyar la imatge; o en les fletxes verdes per a mapes adjacents.


METAR-TAF: